Regional Weather Roundup
Issued by NWS Cleveland, OH

Home | Current Version | Previous Version | Graphics & Text | Print | Product List | Glossary On
Versions: 1 2 3 4 5 6 7 8 9 10 11 12 13 14 15 16 17 18 19 20 21 22 23 24 25 26 27 28 29 30 31 32 33 34 35 36 37 38 39 40 41 42 43 44 45 46 47 48 49 50
000
ASUS41 KCLE 041710
RWRCLE
OHIO REGIONAL WEATHER ROUNDUP
NATIONAL WEATHER SERVICE WILMINGTON, OH
100 PM EDT TUE AUG 04 2015

NOTE: "FAIR" INDICATES FEW OR NO CLOUDS BELOW 12,000 FEET WITH NO
SIGNIFICANT WEATHER AND/OR OBSTRUCTIONS TO VISIBILITY.

OHZ001>008-015>018-024>027-034-035-043-044-041800-
   NORTHWEST OHIO

CITY           SKY/WX    TMP DP  RH WIND       PRES   REMARKS
DEFIANCE       MOSUNNY   80  54  40 W8        29.96F
FINDLAY        SUNNY     80  57  45 W13       29.96F
TOLEDO EXPRESS MOSUNNY   78  57  48 W13       29.94F
TOLEDO EXEC    MOSUNNY   80  56  43 W15       29.95F
LIMA           MOSUNNY   78  55  44 SW12      29.99S
$$

OHZ009>014-019>023-028>033-038-089-041800-
   NORTHEAST OHIO

CITY           SKY/WX    TMP DP  RH WIND       PRES   REMARKS
CLE-HOPKINS    MOSUNNY   79  53  40 W13G21    29.97F
CLE-LAKEFRONT  SUNNY     79  57  46 W12       29.94F
CUY CO. ARPT   MOSUNNY   81  59  47 W14       29.97S
LORAIN-ELYRIA  SUNNY     77  56  48 W8        29.97F
ASHTABULA      MOSUNNY   77  56  48 W14G23    29.96F
AKRON-CANTON   MOSUNNY   80  50  34 SW12      29.98F
WOOSTER        MOSUNNY   78  54  43 VRB7      29.99S
MANSFIELD      SUNNY     78  53  41 W10       29.99F
YOUNGSTOWN     PTSUNNY   76  53  44 W10       29.97F
$$

OHZ042-051>053-060>062-070>072-077>081-041800-
  SOUTHWEST OHIO

CITY           SKY/WX    TMP DP  RH WIND       PRES   REMARKS
CINC-COVINGTON PTSUNNY   83  60  45 W12       30.00S
CINC-LUNKEN    SUNNY     82  60  47 W12       29.98F
HAMILTON       MOSUNNY   82  66  58 VRB6      30.00S
DAYTON         MOSUNNY   79  56  45 W8        30.00F
WRIGHT-PAT AFB SUNNY     80  56  43 VRB5      29.99S
DAYTON GENERAL SUNNY     80  57  45 W9        29.99S
WILMINGTON     SUNNY     79  61  53 W9        29.99F
$$

OHZ036-037-039>041-045>050-054>059-063>069-073>076-082>088-041800-
  CENTRAL AND SOUTHEAST OHIO

CITY           SKY/WX    TMP DP  RH WIND       PRES   REMARKS
COLUMBUS       MOSUNNY   80  55  42 SW8       29.98F
OSU AIRPORT    SUNNY     81  56  42 SW8       29.99S
BOLTON FIELD   SUNNY     79  61  53 W3        30.00S
RICKENBACK AFB PTSUNNY   78  57  48 CALM      29.98S
NEWARK         SUNNY     80  55  42 MISG      29.98F
MARION         PTSUNNY   77  55  46 VRB6      29.99F
LANCASTER      MOSUNNY   80  54  40 VRB3      29.99F
ZANESVILLE     SUNNY     80  52  37 NW7       29.99F
NEW PHILLY     SUNNY     78  57  48 SW3       29.99F
$$



USA.gov is the U.S. government's official web portal to all federal, state and local government web resources and services.